Terminal Aerodrome Forecast
Issued by NWS

Home | Current Version | Previous Version | Text Only | Print | Product List | Glossary On
Versions: 1 2 3 4 5 6 7 8 9 10 11 12 13 14 15 16 17 18 19 20 21
000
FTUS42 KJAX 210000 AAB
TAFCRG
TAF AMD
KCRG 210058Z 2101/2124 19005KT P6SM SCT150 BKN250
     FM210400 26003KT P6SM FEW250
     FM211500 28006KT P6SM FEW040
     FM211900 11009KT P6SM SCT050 SCT250=

USA.gov is the U.S. government's official web portal to all federal, state and local government web resources and services.